Simultaneous Nadir Overpasses (SNOs) Predictions

Prediction of SNOs between AQUA and NOAA-19 Satellite Orbit:

Table of predicted SNOs for the next 14.0 days since TLE Epoch: 11/26/2022
Index Date (AQUA) Time (AQUA) Lat,Lon (AQUA) SZA (AQUA ) Date (NOAA-19) Time (NOAA-19) Lat,Lon (NOAA-19) SZA (NOAA-19 ) Distance(km) Time Diff (sec)
1 11/27/2022 09:13:32 -77.06,-151.77 81.67 11/27/2022 09:13:21 -77.04,-151.82 81.69 3.37 11
2 11/27/2022 10:03:03 77.28, 15.05 98.58 11/27/2022 10:04:12 77.34, 16.84 98.57 44.34 69
3 11/29/2022 14:46:27 77.06, -54.98 98.73 11/29/2022 14:46:06 77.03, -54.98 98.70 3.96 21
4 11/29/2022 15:35:53 -77.10, 112.53 81.23 11/29/2022 15:37:06 -77.11, 112.63 81.24 2.68 73
5 12/01/2022 20:19:20 -77.04, 41.92 80.95 12/01/2022 20:18:55 -77.02, 41.88 80.95 1.70 25
6 12/01/2022 21:08:47 77.07,-150.58 99.11 12/01/2022 21:09:51 77.07,-150.66 99.10 2.11 64
7 12/04/2022 01:52:14 77.03, 138.73 99.38 12/04/2022 01:51:38 77.04, 138.83 99.39 2.55 36
8 12/04/2022 02:41:40 -77.06, -53.73 80.59 12/04/2022 02:42:40 -77.08, -53.72 80.57 2.84 60
9 12/06/2022 07:25:07 -77.03,-124.46 80.34 12/06/2022 07:24:28 -77.03,-124.34 80.33 3.10 39
10 12/06/2022 08:14:34 77.07, 43.01 99.72 12/06/2022 08:15:23 77.07, 43.10 99.71 2.29 49
11 12/08/2022 12:58:00 77.01, -27.62 99.91 12/08/2022 12:57:11 76.99, -27.63 99.89 3.00 49



Historial Predications of SNOs between AQUA and NOAA-19
